SES-2

Last updated on Wed Sep 17 2025 00:02:47 GMT+0000 (Coordinated Universal Time)

1 37809U 11049A 25259.55044721 .00000000 00000+0 00000+0 0 9991 2 37809 0.0138 137.9620 0002360 52.3051 276.6302 1.00268800 51227
UTC large
Height (km)
Speed (km/s)
/
Latitude / Longitude
Inclination (degrees)
Orbital Period (minutes)
Azimuth
Elevation
Range (km)
Doppler Factor

Next 0 passes for location: London (51.5072 / 0.1276)

Sorry there are no passes over London.